This demonstration page uses our WeatherBlox Daily Observations layout. Learn more.

Left ArrowRight Arrow

40.97296, -117.73568

Hourly Observations for August 19, 2016

Temp ( °F °C ) Dew Point ( °F °C ) Humidity (%) Winds ( mph kmh ) Pressure ( in mb ) Visibility ( mi km ) Precip ( " mm )
12:56 am 00:56 Clear 76 24.4 34 1.1 22 22 NNE 9 15 29.84 1011 10 16 0.00 0.00
1:56 am 01:56 Clear 77 25 34 1.1 21 21 NE 12 19 29.83 1010 10 16 0.00 0.00
2:56 am 02:56 Clear 68 20 34 1.1 28 28 NNW 5 7 29.85 1011 10 16 0.00 0.00
3:56 am 03:56 Clear 69 20.6 34 1.1 27 27 N 5 7 29.87 1012 10 16 0.00 0.00
4:56 am 04:56 Clear 62 16.7 33 0.6 34 34 NW 5 7 29.88 1012 10 16 0.00 0.00
5:56 am 05:56 Clear 59 15 32 0 36 36 NW 6 9 29.91 1013 10 16 0.00 0.00
6:56 am 06:56 Sunny 59 15 32 0 36 36 Calm 29.93 1014 10 16 0.00 0.00
7:56 am 07:56 Sunny 66 18.9 35 1.7 32 32 undefined N/A 29.94 1014 10 16 0.00 0.00
8:56 am 08:56 Sunny 77 25 33 0.6 20 20 undefined N/A 29.93 1014 10 16 0.00 0.00
9:56 am 09:56 Sunny 83 28.3 34 1.1 17 17 undefined N/A 29.93 1014 10 16 0.00 0.00
10:56 am 10:56 Sunny 89 31.7 35 1.7 15 15 undefined N/A 29.94 1014 10 16 0.00 0.00
11:56 am 11:56 Sunny 90 32.2 34 1.1 14 14 NNW 12 19 29.90 1013 10 16 0.00 0.00
12:56 pm 12:56 Sunny 93 33.9 34 1.1 12 12 undefined N/A 29.88 1012 10 16 0.00 0.00
1:56 pm 13:56 Sunny 94 34.4 23 -5 8 8 N 13 20 29.85 1011 10 16 0.00 0.00
2:56 pm 14:56 Sunny 94 34.4 27 -2.8 9 9 VRB 6 9 29.85 1011 10 16 0.00 0.00
3:56 pm 15:56 Sunny 96 35.6 22 -5.6 7 7 N 16 26 29.83 1010 10 16 0.00 0.00
4:56 pm 16:56 Sunny 95 35 22 -5.6 7 7 NNW 13 20 29.83 1010 10 16 0.00 0.00
5:56 pm 17:56 Sunny 94 34.4 21 -6.1 7 7 N 7 11 29.83 1010 10 16 0.00 0.00
6:56 pm 18:56 Sunny 91 32.8 24 -4.4 9 9 N 8 13 29.83 1010 10 16 0.00 0.00
7:56 pm 19:56 Clear 80 26.7 26 -3.3 14 14 N 5 7 29.85 1011 10 16 0.00 0.00
8:56 pm 20:56 Clear 79 26.1 25 -3.9 14 14 NE 5 7 29.86 1011 10 16 0.00 0.00
9:56 pm 21:56 Clear 72 22.2 24 -4.4 17 17 N 6 9 29.88 1012 10 16 0.00 0.00
10:56 pm 22:56 Clear 77 25 25 -3.9 14 14 NNE 10 17 29.86 1011 10 16 0.00 0.00
11:56 pm 23:56 Clear 77 25 25 -3.9 14 14 NE 12 19 29.86 1011 10 16 0.00 0.00

Powered by AerisWeather